Flag for Spain Weather past 2 weeks in Huelva, Spain

Now
72 °F

Clear.


Feels Like: 75 °F
Forecast: 65 / 90 °F
Wind: 1 mph from North

Location: Rota Airport

Current Time: Jul 23, 2014 at 10:11:12 AM

Latest Report: Jul 23, 2014 at 7:00 AM


Visibility: 10 mi

Pressure: 29.89 "Hg

Humidity: 69%

Dew point: 61 °F

Location of HuelvaLocation

Historic Weather in Huelva — Graph

°F

Huelva temperature yesterday

Maximum temperature yesterday: 88 °F (at 2:00 PM)
Minimum temperature yesterday: 64 °F (at 7:00 AM)
Average temperature yesterday: 77 °F

Past Weeks' High & Low Weather Summary

 TemperatureHumidityPressure
High93 °F (Jul 16, 1:00 PM)100% (Jul 14, 5:00 AM)30.09 "Hg (Jul 14, 5:00 AM)
Low61 °F (Jul 21, 7:00 AM)22% (Jul 8, 1:00 PM)29.89 "Hg (Jul 23, 4:00 AM)
Average75 °F70%29.99 "Hg
* Reported Jul 8 7:00 AM — Jul 23 7:00 AM, Huelva, Weather by CustomWeather, © 2014

Note: Actual official high and low records may vary slightly from our data, if they occured in-between our weather recording intervals... More about our weather records

Advertising

Huelva weather history for previous 24 hours

 ConditionsComfort  
Time TempWeatherWind HumidityBarometerVisibility
7:00 AM
Jul 23
72 °FClear.1 mph69%29.89 "Hg10 mi
6:00 AM68 °FClear.No wind60%29.89 "Hg10 mi
5:00 AM70 °FClear.1 mph60%29.89 "Hg10 mi
4:00 AM70 °FClear.1 mph57%29.89 "Hg10 mi
3:00 AM70 °FClear.No wind64%29.92 "Hg10 mi
2:00 AM73 °FClear.No wind61%29.92 "Hg10 mi
1:00 AM75 °FClear.3 mph61%29.92 "Hg10 mi
6:00 PM
Jul 22
82 °FSunny.14 mph48%29.92 "Hg10 mi
5:00 PM84 °FSunny.12 mph40%29.92 "Hg10 mi
4:00 PM84 °FPassing clouds.12 mph40%29.92 "HgN/A
3:00 PM84 °FSunny.12 mph45%29.95 "Hg10 mi
2:00 PM88 °FPassing clouds.3 mph33%29.95 "HgN/A
1:00 PM84 °FPassing clouds.7 mph45%29.98 "HgN/A
12:00 PM82 °FSunny.6 mph45%29.98 "Hg10 mi
11:00 AM86 °FSunny.No wind29%29.98 "Hg10 mi
10:00 AM81 °FSunny.1 mph39%29.98 "Hg10 mi
Weather by CustomWeather, © 2014

See weather overviewHow to use our weather pages